Weather History for KAVL - January, 2013

Change the Weather History Date:

Wednesday, January 2, 2013

  Actual Average Record
Temperature  
Mean Temperature 41 °F 37 °F  
Max Temperature 45 °F 47 °F 75 °F (1952)
Min Temperature 37 °F 27 °F -5 °F (1928)
Degree Days  
Heating Degree Days 24 28  
Month to date heating degree days 48 56  
Since 1 July heating degree days 1605 1717  
Cooling Degree Days 0 0  
Month to date cooling degree days 0 0  
Year to date cooling degree days 0 0  
Moisture  
Dew Point 36 °F    
Average Humidity 81    
Maximum Humidity 92    
Minimum Humidity 70    
Precipitation  
Precipitation 0.03 in 0.10 in 2.00 in (1999)
Month to date precipitation 0.32 0.21  
Year to date precipitation 0.32 0.21  
Snow  
Snow 0.00 in 0.10 in 2.00 in (1944)
Month to date snowfall 0.0 0.2  
Since 1 July snowfall T 1.2  
Snow Depth 0.00 in    
Sea Level Pressure  
Sea Level Pressure 30.04 in    
Wind  
Wind Speed 9 mph (NNW)    
Max Wind Speed 21 mph    
Max Gust Speed 26 mph    
Visibility 10 miles    
Events Rain    
T = Trace of Precipitation, MM = Missing Value Source: NWS Daily Summary

Daily Weather History Graph

Daily Weather History Graph

Search for Another Location

Airport or City:

Trip Planner

Search our weather history database for the weather conditions in past years. The results will help you decide how hot, cold, wet, or windy it might be!

Date:

Astronomy

Jan. 02, 2013 Rise Set
Actual Time 7:39 AM EST 5:29 PM EST
Civil Twilight 7:11 AM EST 5:57 PM EST
Nautical Twilight 6:39 AM EST 6:29 PM EST
Astronomical Twilight 6:08 AM EST 7:00 PM EST
Moon 10:48 PM EST (1/2) 10:32 AM EST (1/2)
Length of Visible Light 10h 46m
Length of Day
9h 49m
Waning Gibbous, 75% of the Moon is Illuminated
Jan 2
Waning Gibbous
Jan 4
Last Quarter
Jan 11
New
Jan 18
First Quarter
Jan 26
Full

Hourly Weather History & Observations

Time (EST) Temp. Windchill Dew Point Humidity Pressure Visibility Wind Dir Wind Speed Gust Speed Precip Events Conditions
12:03 AM 42.8 °F 38.0 °F 42.8 °F 100% 29.95 in 7.0 mi NNW 8.1 mph - 0.00 in Rain Light Rain
12:54 AM 44.1 °F 41.5 °F 43.0 °F 96% 29.95 in 7.0 mi NNW 4.6 mph - 0.02 in Rain Light Rain
1:15 AM 44.6 °F - 42.8 °F 93% 29.92 in 9.0 mi Calm Calm - 0.01 in   Overcast
1:54 AM 43.0 °F 38.2 °F 42.1 °F 97% 29.94 in 10.0 mi NNW 8.1 mph - 0.01 in   Overcast
2:43 AM 44.6 °F 40.7 °F 42.8 °F 93% 29.94 in 10.0 mi North 6.9 mph - N/A   Overcast
2:54 AM 44.1 °F 38.6 °F 42.1 °F 93% 29.95 in 10.0 mi NNW 10.4 mph - N/A   Overcast
3:13 AM 44.6 °F 38.4 °F 42.8 °F 93% 29.96 in 10.0 mi North 12.7 mph 21.9 mph N/A   Overcast
3:54 AM 42.1 °F 34.9 °F 39.0 °F 89% 29.96 in 10.0 mi North 13.8 mph 26.5 mph 0.00 in   Overcast
4:54 AM 41.0 °F 32.8 °F 37.9 °F 89% 29.97 in 10.0 mi North 16.1 mph 24.2 mph N/A   Overcast
5:08 AM 41.0 °F 32.5 °F 37.4 °F 87% 29.98 in 10.0 mi NNW 17.3 mph 24.2 mph N/A   Overcast
5:54 AM 41.0 °F 35.8 °F 37.0 °F 86% 29.98 in 10.0 mi North 8.1 mph - N/A   Mostly Cloudy
6:54 AM 39.9 °F 36.7 °F 37.0 °F 89% 30.00 in 10.0 mi North 4.6 mph - N/A   Clear
7:08 AM 39.2 °F 33.0 °F 37.4 °F 93% 30.00 in 10.0 mi North 9.2 mph - N/A   Scattered Clouds
7:17 AM 39.2 °F 30.5 °F 37.4 °F 93% 30.00 in 10.0 mi North 16.1 mph 23.0 mph N/A   Mostly Cloudy
7:54 AM 39.0 °F 29.6 °F 37.0 °F 93% 30.03 in 10.0 mi NNW 18.4 mph 21.9 mph N/A   Overcast
8:54 AM 37.9 °F 30.9 °F 35.1 °F 89% 30.06 in 10.0 mi North 10.4 mph - N/A   Overcast
9:33 AM 37.4 °F 30.3 °F 33.8 °F 87% 30.07 in 10.0 mi NNW 10.4 mph - N/A   Overcast
9:54 AM 39.0 °F 32.8 °F 33.1 °F 79% 30.09 in 10.0 mi North 9.2 mph - N/A   Overcast
10:54 AM 39.9 °F 32.5 °F 33.1 °F 77% 30.09 in 10.0 mi NNW 12.7 mph - N/A   Mostly Cloudy
11:54 AM 39.9 °F 32.1 °F 33.1 °F 77% 30.08 in 10.0 mi NNW 13.8 mph - N/A   Mostly Cloudy
12:06 PM 39.2 °F 31.2 °F 33.8 °F 81% 30.08 in 10.0 mi NNW 13.8 mph - N/A   Scattered Clouds
12:54 PM 41.0 °F 34.3 °F 32.0 °F 70% 30.05 in 10.0 mi NNW 11.5 mph - N/A   Clear
1:54 PM 41.0 °F 34.7 °F 33.1 °F 73% 30.03 in 10.0 mi North 10.4 mph - N/A   Clear
2:54 PM 42.1 °F 36.1 °F 34.0 °F 73% 30.04 in 10.0 mi NNW 10.4 mph - N/A   Clear
3:15 PM 41.0 °F 36.4 °F 33.8 °F 76% 30.04 in 10.0 mi North 6.9 mph - N/A   Mostly Cloudy
3:54 PM 41.0 °F 34.7 °F 33.1 °F 73% 30.06 in 10.0 mi NNW 10.4 mph - N/A   Overcast
4:54 PM 41.0 °F 35.2 °F 33.1 °F 73% 30.06 in 10.0 mi NNW 9.2 mph - N/A   Overcast
5:54 PM 39.0 °F 32.3 °F 33.1 °F 79% 30.08 in 10.0 mi North 10.4 mph - N/A   Overcast
6:54 PM 37.9 °F 31.5 °F 32.0 °F 79% 30.11 in 10.0 mi North 9.2 mph - N/A   Overcast
7:54 PM 37.9 °F 31.5 °F 32.0 °F 79% 30.12 in 10.0 mi NNW 9.2 mph - N/A   Overcast
8:25 PM 37.4 °F - 32.0 °F 81% 30.09 in 10.0 mi Calm Calm - N/A   Mostly Cloudy
8:54 PM 37.0 °F 32.4 °F 32.0 °F 82% 30.13 in 10.0 mi NNW 5.8 mph - N/A   Partly Cloudy
9:54 PM 37.0 °F 34.5 °F 32.0 °F 82% 30.14 in 10.0 mi NNW 3.5 mph - N/A   Overcast
10:42 PM 37.4 °F - 33.8 °F 87% 30.12 in 10.0 mi Calm Calm - N/A   Overcast
10:54 PM 37.9 °F - 33.1 °F 83% 30.14 in 10.0 mi Calm Calm - N/A   Overcast
11:54 PM 37.9 °F - 33.1 °F 83% 30.10 in 10.0 mi Calm Calm - N/A   Overcast